Orbital Elements at Epoch 2459000.5 (2020-May-31.0) TDB
Reference: JPL 23 (heliocentric ecliptic J2000)
Element | Value | Uncertainty (1-sigma) | Units |
e | .1368218239608379 | 2.8881e-08 | |
a | 2.285553455662617 | 8.5203e-09 | au |
q | 1.972839863098862 | 6.4194e-08 | au |
i | 5.139245918059388 | 3.2921e-06 | deg |
node | 187.3089898236854 | 3.7038e-05 | deg |
peri | 82.08355826016344 | 4.0637e-05 | deg |
M | 12.16625621363597 | 1.4591e-05 | deg |
tp | 2458957.847945138311 (2020-Apr-18.34794514) | 5.1233e-05 | TDB |
period | 1262.075981352291 3.46 | 7.0573e-06 1.932e-08 | d yr |
n | .2852443159676223 | 1.595e-09 | deg/d |
Q | 2.598267048226372 | 9.686e-09 | au |
|
| | Orbit Determination Parameters
Additional Information
|